Flag for Turkey Weather past 2 weeks in Konya, Turkey

Now
34 °F

Clear.


Feels Like: 28 °F
Forecast: 22 / 48 °F
Wind: 7 mph from North

Location: Konya Airport

Current Time: Mar 4, 2015 at 8:50:44 PM

Latest Report: Mar 4, 2015 at 7:50 PM


Visibility: 10 mi

Pressure: 30.24 "Hg

Humidity: 60%

Dew point: 21 °F

Location of KonyaLocation

Historic Weather in Konya — Graph

°F

Konya temperature yesterday

Maximum temperature yesterday: 50 °F (at 1:50 PM)
Minimum temperature yesterday: 30 °F (at 4:50 AM)
Average temperature yesterday: 40 °F

Past Weeks' High & Low Weather Summary

 TemperatureHumidityPressure
High59 °F (Feb 27, 1:50 PM)100% (Feb 23, 7:50 PM)30.24 "Hg (Feb 23, 7:50 PM)
Low12 °F (Feb 22, 1:50 AM)36% (Feb 27, 1:50 PM)29.71 "Hg (Feb 19, 3:50 PM)
Average36 °F77%30.00 "Hg
* Reported Feb 17 6:50 PM — Mar 4 6:50 PM, Konya, Weather by CustomWeather, © 2015

Note: Actual official high and low records may vary slightly from our data, if they occured in-between our weather recording intervals... More about our weather records

Advertising

Konya weather history for previous 24 hours

 ConditionsComfort  
Time TempWeatherWind HumidityBarometerVisibility
6:50 PM
Wed, Mar 4
36 °FClear.9 mph56%30.24 "Hg10 mi
5:50 PM37 °FPassing clouds.10 mph52%30.21 "HgN/A
4:50 PM41 °FPassing clouds.16 mph45%30.18 "HgN/A
3:50 PM43 °FScattered clouds.16 mph46%30.18 "HgN/A
2:50 PM45 °FScattered clouds.20 mph49%30.18 "HgN/A
1:50 PM45 °FScattered clouds.17 mph53%30.18 "HgN/A
12:50 PM46 °FScattered clouds.16 mph46%30.18 "HgN/A
11:50 AM45 °FPassing clouds.14 mph42%30.21 "HgN/A
10:50 AM45 °FScattered clouds.16 mph46%30.21 "HgN/A
8:50 AM41 °FPassing clouds.8 mph57%30.21 "HgN/A
7:50 AM39 °FSunny.14 mph65%30.18 "Hg10 mi
6:50 AM37 °FScattered clouds.12 mph70%30.18 "HgN/A
5:50 AM37 °FPassing clouds.9 mph75%30.15 "HgN/A
4:50 AM39 °FPartly cloudy.7 mph70%30.12 "HgN/A
3:50 AM39 °FPassing clouds.15 mph75%30.09 "HgN/A
2:50 AM41 °FPartly cloudy.16 mph76%30.09 "HgN/A
1:50 AM41 °FSprinkles. Partly cloudy.12 mph87%30.09 "HgN/A
1:04 AM43 °FSprinkles. Partly cloudy.6 mph76%30.07 "HgN/A
12:50 AM45 °FPartly cloudy.5 mph66%30.07 "HgN/A
11:50 PM
Tue, Mar 3
45 °FPartly cloudy.No wind61%30.07 "HgN/A
10:50 PM46 °FPartly cloudy.3 mph57%30.07 "HgN/A
9:50 PM45 °FPartly cloudy.5 mph61%30.04 "HgN/A
8:50 PM45 °FPartly cloudy.6 mph61%30.04 "HgN/A
Weather by CustomWeather, © 2015

See weather overviewHow to use our weather pages